Cloud_Cover
24 10 0 0 0 3 1 6 12 2 3 5 50 72 68 81 60 95 39 56 30 5 5 16 72 100 54 7 44 100 100 100 88 100 93 100 100 100 100 100 100 100 100
10 36 5 6 2 3 0 5 6 5 7 14 3 5 4 7 1 12 4 2 17 2 5 5 66 100 87 91 5 100 100 100 100 80 71 100 100 100 100 100 100 100 100
0 35 6 5 21 5 2 5 2 4 43 28 16 6 6 79 90 97 92 98 31 13 1 3 5 13 8 4 6 21 100 100 100 100 83 100 96 100 97 74 100 100 100
28 14 37 8 7 3 11 3 8 5 15 8 3 5 5 5 5 5 29 100 100 92 34 30 67 85 98 98 100 100 62 100 100 100 100 100 100 100 100 100 100 100 100
11 8 6 5 8 6 4 1 2 15 0 3 5 1 0 1 2 5 5 28 51 80 27 5 7 84 100 100 56 98 100 83 100 100 98 100 100 100 100 100 100 100 100
15 31 47 14 20 7 5 4 4 4 5 0 5 5 4 5 5 5 5 32 6 95 71 4 5 20 63 95 100 100 67 70 64 100 100 96 100 100 100 100 100 100 100
4 4 12 93 6 5 100 1 0 5 7 6 5 10 10 5 5 6 5 60 97 100 91 5 44 47 92 100 100 100 59 49 86 100 92 91 99 100 100 100 100 100 100
3 6 29 3 9 6 37 5 40 74 15 5 5 5 10 56 94 81 51 90 64 100 15 5 5 14 46 14 37 5 27 19 61 34 32 19 23 85 100 100 100 100 100
14 0 6 17 3 5 23 75 5 22 56 17 77 7 5 20 13 5 5 5 5 90 6 42 63 35 5 89 100 77 100 97 91 100 100 38 26 5 47 96 100 100 100
0 0 7 47 8 2 9 86 56 6 5 5 5 5 5 5 3 5 34 5 57 100 100 7 5 78 24 16 6 6 96 100 62 5 1 5 5 2 0 5 64 100 100
16 5 7 39 27 0 0 4 5 5 26 5 5 5 5 5 5 5 10 90 100 100 8 84 27 9 5 5 7 41 5 28 55 98 100 94 100 90 49 2 0 42 54
7 3 0 0 4 3 5 13 5 5 5 5 5 5 5 5 5 5 11 42 82 88 38 60 100 84 67 38 99 99 100 99 100 100 94 100 100 84 66 91 84 4 3
0 1 0 0 1 0 0 3 5 5 5 5 5 5 59 54 17 9 43 64 62 91 96 100 100 100 100 100 100 100 91 100 100 100 77 49 42 5 1 5 42 18 6
0 0 0 0 0 0 0 0 0 0 5 4 5 5 5 17 5 39 17 99 87 5 100 100 100 75 100 80 81 100 71 71 98 100 100 7 36 72 52 61 7 1 39
0 0 0 0 0 0 0 0 0 0 0 0 0 0 1 4 5 5 5 3 3 3 74 100 59 65 46 46 58 5 10 5 5 18 6 39 24 31 63 96 64 15 2
0 0 0 0 0 0 0 0 0 0 0 0 0 0 0 0 0 2 5 1 0 8 53 90 55 5 0 3 0 4 5 5 19 94 6 5 6 90 8 100 0 1 32
0 0 0 0 0 0 0 0 0 0 0 0 0 0 0 0 0 0 0 0 0 4 7 1 2 0 0 2 15 2 15 5 6 64 60 5 73 68 70 100 0 0 13
1 0 0 0 0 0 0 0 0 0 0 0 0 0 42 34 1 17 0 0 0 0 0 0 0 0 0 18 7 1 0 5 5 11 8 29 93 17 100 100 0 0 0
4 5 0 0 0 0 0 0 0 0 0 0 0 0 0 70 0 0 0 0 0 0 0 0 0 0 0 0 0 0 0 5 10 88 98 10 5 8 100 100 0 0 0
5 5 1 0 0 0 0 0 0 0 0 0 0 0 0 0 0 0 0 0 0 0 0 0 2 5 7 4 1 0 17 6 40 21 13 13 15 13 100 100 2 0 0
0 0 5 0 0 0 0 0 0 0 0 0 0 0 0 0 0 0 0 0 0 0 0 0 19 8 38 28 0 17 40 63 65 27 32 34 5 5 84 99 12 0 0
5 0 4 3 0 0 0 0 0 0 0 0 0 0 0 0 0 0 0 0 0 0 0 42 38 5 2 4 2 0 21 72 82 12 35 23 5 84 100 100 17 4 0
4 1 0 3 0 3 0 5 0 0 0 0 0 0 0 0 0 0 0 0 0 0 0 0 38 0 0 0 34 24 0 0 33 72 31 60 20 7 25 96 79 1 0
5 0 0 0 0 0 0 2 4 0 0 0 0 0 0 0 0 0 0 0 0 0 0 0 0 0 8 0 17 55 45 26 0 46 19 49 67 31 100 100 20 1 0
0 4 0 5 0 0 0 4 0 0 0 0 0 0 0 0 0 0 0 0 0 0 0 0 0 0 23 19 0 18 24 0 0 0 3 10 27 100 100 100 98 1 0
0 5 0 5 0 2 26 50 4 0 2 3 0 0 0 0 0 0 0 0 0 0 0 0 2 21 14 0 2 5 2 0 0 0 5 0 57 84 100 100 48 0 0